Regional Weather Roundup
Issued by NWS

Home | Current Version | Previous Version | Graphics & Text | Print | Product List | Glossary On
Versions: 1 2 3 4 5 6 7 8 9 10 11 12 13 14 15 16 17 18 19 20 21 22 23 24 25 26 27
000
ASUS45 KSLC 240110
RWRUT

UTAH REGIONAL WEATHER ROUNDUP
NATIONAL WEATHER SERVICE SALT LAKE CITY UT
700 PM MDT SUN JUL 23 2017

UTZ001>011-023>025-240200-

NORTHERN UTAH

CITY           SKY/WX    TMP DP  RH WIND       PRES   REMARKS
BRIGHAM CITY   PTSUNNY   94  26   8 N3        29.97F
HILL AFB       CLOUDY    91  39  16 CALM      30.01F
LOGAN          PTSUNNY   91  42  18 W5        29.98F
OGDEN          PTSUNNY   93  38  14 W5        29.97F
SALT LAKE CITY CLOUDY    94  38  14 CALM      29.96F
TOOELE VALLEY  PTSUNNY   90  43  19 N5        29.98F
WENDOVER       NOT AVBL
HEBER CITY     CLOUDY    79  45  29 W6        30.13S
WEST JORDAN    PTSUNNY   89  56  32 CALM      30.02S

$$

UTZ011>015-024>027-240200-

CENTRAL/NORTHEAST UTAH

CITY           SKY/WX    TMP DP  RH WIND       PRES   REMARKS
PROVO AIRPORT  CLOUDY    88  52  29 E12       30.03S
MOAB/CANYONLAN SUNNY     98  30   9 E7        29.93F HX  92
DELTA          CLOUDY    84  43  23 NE6       30.04R
PRICE          PTSUNNY   85  40  20 N16G24    30.11R
RICHFIELD      SUNNY     82  50  32 S8        30.06
ROOSEVELT      MOSUNNY   86  37  17 NW15G22   30.08F
VERNAL         MOSUNNY   89  40  17 N8        30.04F

$$

UTZ013>016-019>022-027-240200-

SOUTHERN UTAH

CITY           SKY/WX    TMP DP  RH WIND       PRES   REMARKS
BRYCE CANYON   CLOUDY    73  47  39 N9        30.27F
CEDAR CITY     PTSUNNY   88  41  19 SE8       30.06S
MILFORD        PTSUNNY   90  44  20 E6        30.01F
ST GEORGE      CLOUDY    95  54  25 S12       29.83S HX  93
HANKSVILLE     MOSUNNY   97  41  14 S12       29.95F HX  92
KANAB          SUNNY     86  52  30 S8        30.06
BLANDING       MOSUNNY   79  48  32 NE24G30   30.19S

$$

REGIONAL REPORTS     COLORADO/ARIZONA

CITY           SKY/WX    TMP DP  RH WIND       PRES   REMARKS
CRAIG, CO      SUNNY     88  31  13 CALM      30.10F
GRAND JUNCTION SUNNY     95  29   9 S5        29.97F
RIFLE, CO      CLOUDY    94  28   9 W7        30.02F
MONTROSE, CO   SUNNY     76  48  37 SE25G31   30.13F
CORTEZ, CO     CLOUDY    81  51  35 NE15      30.14S
COLORADO CITY    N/A     82  55  39 SE6       30.07F
PAGE, AZ       PTSUNNY   95  50  21 SE18G24   29.93S HX  92
GRAND CANYON   CLOUDY    71  55  56 W5        30.20S
KINGMAN, AZ    PTSUNNY   79  62  56 SE22G33   29.97R
FLAGSTAFF, AZ  LGT RAIN  61  59  93 S6        30.22S

$$

REGIONAL REPORTS    NEVADA/IDAHO/WYOMING

CITY           SKY/WX    TMP DP  RH WIND       PRES   REMARKS
LAS VEGAS, NV  MOSUNNY  107  53  16 SE7       29.72F HX 105
ELY, NY          N/A    N/A N/A N/A MISG      30.20R
ELKO, NV       CLOUDY    85  39  19 SW17G25   30.05R
POCATELLO, ID  MOSUNNY   93  37  14 W9        29.97F
BURLEY, ID     SUNNY     89  42  19 W7        29.94F
FORT BRIDGER,    N/A     82  34  18 S14       30.25S
EVANSTON, WY   CLOUDY    78  38  23 S10       30.23F
ROCK SPRINGS,  CLOUDY    85  26  11 W13       30.18S
KEMMERER, WY     N/A     82  28  14 W9        30.24S

$$




USA.gov is the U.S. government's official web portal to all federal, state and local government web resources and services.